Regional Weather Roundup
Issued by NWS

Home | Current Version | Previous Version | Text Only | Print | Product List | Glossary Off
Versions: 1 2 3 4 5 6 7 8 9 10 11 12 13 14 15 16 17 18 19 20 21 22 23 24 25 26 27 28 29 30 31 32 33 34 35 36 37 38 39 40 41 42 43 44 45 46 47 48 49 50

000
ASUS43 KLOT 270208
RWRIL

ILLINOIS REGIONAL WEATHER ROUNDUP
NATIONAL WEATHER SERVICE CHICAGO/ROMEOVILLE IL
900 PM CDT SUN MAR 26 2017

NOTE: "FAIR" INDICATES FEW OR NO CLOUDS BELOW 12,000 FEET WITH NO
SIGNIFICANT WEATHER AND/OR OBSTRUCTIONS TO VISIBILITY.

* THESE STATIONS ARE NOT UNDER NWS QUALITY CONTROL. THEY ALSO MAY NOT
  REPORT WEATHER SUCH AS PRECIPITATION OR FOG.

ILZ001-002-007-009-015-016-024-270300-
NORTHWEST ILLINOIS

CITY           SKY/WX    TMP DP  RH WIND       PRES   REMARKS
MOLINE         CLOUDY    50  46  86 W8        29.92R
STERLING*      CLOUDY    51  50  96 W13       29.89R
SAVANNA*       HVY RAIN  49  48  97 NW5       29.90R
$$

ILZ003-004-008-010-011-017-018-270300-
NORTH CENTRAL ILLINOIS

CITY           SKY/WX    TMP DP  RH WIND       PRES   REMARKS
ROCKFORD       CLOUDY    54  51  90 SW8       29.88R
FREEPORT*      CLOUDY    48  48  99 NW7       29.89S FOG
ROCHELLE*      CLOUDY    50  50  99 SW8       29.88R FOG
DE KALB*       CLOUDY    51  50  97 SW12      29.88R FOG
PERU*          CLOUDY    49  47  95 W9        29.91R FOG
$$

ILZ005-006-012>014-019>023-270300-
NORTHEAST ILLINOIS

CITY           SKY/WX    TMP DP  RH WIND       PRES   REMARKS
CHICAGO-OHARE  DRIZZLE   55  52  89 SW6       29.86R
CHICAGO-MIDWAY DRIZZLE   54  53  97 SW8       29.88R FOG
AURORA         CLOUDY    52  49  89 SW10      29.88R
LANSING*       CLOUDY    53  52  97 SW7       29.89R
JOLIET*        CLOUDY    53  51  94 SW6       29.89S
WAUKEGAN       CLOUDY    44  44 100 NE3       29.86R FOG
DUPAGE AIRPORT CLOUDY    52  52 100 W13       29.87R FOG
KANKAKEE*      CLOUDY    52  50  92 SW13      29.92R
WHEELING       CLOUDY    54  53  97 SW8       29.88R
MORRIS*        CLOUDY    51  49  93 SW7       29.89R
ROMEOVILLE*    CLOUDY    51  51 100 W9        29.88S
$$

LMZ740>746-270300-
SOUTHERN LAKE MICHIGAN

STATION/POSITION SKY/WX   TEMP    WIND        PRES    VSBY  WAVE
                          AIR SEA DIR/SP/G                  HT/PER
                          (F)     (DEG/KT/KT) (MB)    (MI)  (FT/S)
HARRISON CRIB              55     240/  7/ 10   N/A
BURNHAM HARBOR             54     250/  4/ 10   N/A
CALUMET HARBOR             54     210/  6/ 11 1011.1R
BURNS HARBOR               54     240/ 11/ 14 1012.5R
MICHIGAN CITY              50     230/ 13/ 13   N/A
$$

ILZ025>027-034>036-040-047-049-050-058-095>099-270300-
WEST-CENTRAL ILLINOIS

CITY           SKY/WX    TMP DP  RH WIND       PRES   REMARKS
QUINCY         CLOUDY    49  46  90 NW5       29.95R
GALESBURG*     CLOUDY    48  47  95 W7        29.93R
MACOMB*        CLOUDY    49  47  94 W5        29.97R
JACKSONVILLE*  CLOUDY    51  47  86 NW6       29.95S
PITTSFIELD*    CLOUDY    51  48  88 CALM      29.96S
$$

ILZ028>032-037-038-041>044-048-051>054-059>061-270300-
CENTRAL ILLINOIS

CITY           SKY/WX    TMP DP  RH WIND       PRES   REMARKS
PONTIAC        CLOUDY    51  51  99 W12       29.93R
BLOOMINGTON    CLOUDY    49  48  97 W13       29.94R
DECATUR        CLOUDY    54  48  80 W8        29.95R
PEORIA         CLOUDY    50  47  89 W6        29.94R
LACON*         CLOUDY    49  47  93 W7        29.93R
LINCOLN*       CLOUDY    53  49  88 W3        29.95R
SPRINGFIELD    CLOUDY    53  48  83 W6        29.96R
TAYLORVILLE    CLOUDY    52  48  87 W3        29.96R
$$

ILZ033-039-045-046-055>057-062-063-270300-
EAST-CENTRAL ILLINOIS

CITY           SKY/WX    TMP DP  RH WIND       PRES   REMARKS
CHAMPAIGN      CLOUDY    55  50  83 W10       29.94R
RANTOUL*       CLOUDY    53  52  96 W10       29.94R
MATTOON        CLEAR     54  49  83 SW8       29.95R
PARIS*         CLEAR     52  49  87 SW7       29.96R
$$

ILZ079-100>102-270300-
SOUTHWEST ILLINOIS

CITY           SKY/WX    TMP DP  RH WIND       PRES   REMARKS
ALTON          CLEAR     52  48  87 CALM      29.96R
BELLEVILLE     MOCLDY    53  52  99 CALM      29.94R
CAHOKIA*       PTCLDY    55  50  83 SE3       29.95R
SPARTA*        MOCLDY    57  48  73 SE5       29.96R
$$

ILZ064>066-069>071-074>076-080>082-084>086-088>090-092>094-270300-
SOUTH-CENTRAL ILLINOIS

CITY           SKY/WX    TMP DP  RH WIND       PRES   REMARKS
CARBONDALE     PTCLDY    55  48  77 S5        29.97R
CAIRO*         CLOUDY    55  52  90 CALM      29.99R
EFFINGHAM*     PTCLDY    53  50  89 CALM      29.98R
MARION         CLOUDY    54  45  71 CALM      29.99R
MT. VERNON     CLOUDY    52  48  86 CALM      29.97R
CENTRALIA*     CLOUDY    52  50  95 CALM      29.96R
SALEM*         CLOUDY    55  49  82 CALM      29.96R
METROPOLIS*    CLOUDY    55  51  86 CALM      29.99R
$$

ILZ067-068-072-073-078-083-087-091-270300-
SOUTHEAST ILLINOIS

CITY           SKY/WX    TMP DP  RH WIND       PRES   REMARKS
LAWRENCEVILLE  CLEAR     54  49  83 W3        29.98R
FLORA*         CLEAR     51  49  93 S7        29.97S
FAIRFIELD*     CLOUDY    53  48  84 CALM      29.97R
HARRISBURG*    CLOUDY    52  48  87 CALM      29.99R
ROBINSON*      CLEAR     51  48  89 SW6       29.98R
CARMI*         CLOUDY    52  48  85 CALM      29.98R
$$

ABBREVIATIONS USED IN REMARKS
   TC - TEMPERATURE IN CELSIUS
  WCI - WIND CHILL INDEX
   HX - HEAT INDEX
  VSB - VISIBILITY
$$





USA.gov is the U.S. government's official web portal to all federal, state and local government web resources and services.